Weather History for KVTP - August, 2013

Change the Weather History Date:

Tuesday, August 6, 2013

  Actual Average (KTAD) Record (KTAD)
Temperature  
Mean Temperature 55 °F 72 °F  
Max Temperature 66 °F 87 °F 98 °F (1977)
Min Temperature 44 °F 58 °F 52 °F (1974)
Degree Days  
Heating Degree Days 10 0  
Month to date heating degree days 0  
Since 1 June heating degree days 42  
Since 1 July heating degree days 3  
Cooling Degree Days 0 8  
Month to date cooling degree days 48  
Year to date cooling degree days 483  
Since 1 June cooling degree days 455  
Growing Degree Days 5 (Base 50)    
Moisture  
Dew Point 43 °F    
Average Humidity 73    
Maximum Humidity 93    
Minimum Humidity 39    
Precipitation  
Precipitation 0.00 in 0.08 in 1.01 in (1955)
Month to date precipitation 0.50  
Year to date precipitation 8.73  
Sea Level Pressure  
Sea Level Pressure 30.45 in    
Wind  
Wind Speed 9 mph (WSW)    
Max Wind Speed 18 mph    
Max Gust Speed 28 mph    
Visibility 10 miles    
Events Rain , Thunderstorm    
T = Trace of Precipitation, MM = Missing Value Source: NWS Daily Summary

Daily Weather History Graph

Daily Weather History Graph

Search for Another Location

Airport or City:

Trip Planner

Search our weather history database for the weather conditions in past years. The results will help you decide how hot, cold, wet, or windy it might be!

Date:

Astronomy

Aug. 06, 2013 Rise Set
Actual Time 6:09 AM MDT 8:03 PM MDT
Civil Twilight 5:40 AM MDT 8:31 PM MDT
Nautical Twilight 5:06 AM MDT 9:06 PM MDT
Astronomical Twilight 4:28 AM MDT 9:43 PM MDT
Moon 6:01 AM MDT (8/6) 7:41 PM MDT (8/6)
Length of Visible Light 14h 50m
Length of Day
13h 53m
Waning Crescent, 0% of the Moon is Illuminated
Aug 6
Waning Crescent
Aug 6
New
Aug 14
First Quarter
Aug 20
Full
Aug 28
Last Quarter

Hourly Weather History & Observations

Time (MDT) Temp. Windchill Dew Point Humidity Pressure Visibility Wind Dir Wind Speed Gust Speed Precip Events Conditions
12:15 AM 50.0 °F - 42.8 °F 76% 30.50 in 10.0 mi SW 9.2 mph 16.1 mph N/A Thunderstorm Thunderstorm
12:35 AM 50.0 °F - 44.6 °F 82% 30.49 in 10.0 mi SW 13.8 mph 20.7 mph N/A   Overcast
12:55 AM 50.0 °F - 44.6 °F 82% 30.49 in 10.0 mi SW 13.8 mph 25.3 mph N/A   Overcast
1:14 AM 48.2 °F - 44.6 °F 87% 30.49 in 10.0 mi SW 15.0 mph 25.3 mph N/A   Overcast
1:35 AM 46.4 °F 41.1 °F 44.6 °F 93% 30.49 in 10.0 mi SW 11.5 mph 27.6 mph N/A Rain Light Rain
1:55 AM 46.4 °F 42.4 °F 44.6 °F 93% 30.49 in 7.0 mi SW 8.1 mph 20.7 mph N/A Rain Light Rain
2:14 AM 46.4 °F 42.9 °F 44.6 °F 93% 30.48 in 7.0 mi West 6.9 mph - N/A Rain Light Rain
2:35 AM 46.4 °F 41.5 °F 42.8 °F 87% 30.45 in 10.0 mi NW 10.4 mph 19.6 mph N/A   Drizzle
2:55 AM 46.4 °F 43.5 °F 42.8 °F 87% 30.44 in 10.0 mi West 5.8 mph - N/A   Scattered Clouds
3:14 AM 46.4 °F 42.9 °F 42.8 °F 87% 30.44 in 10.0 mi West 6.9 mph - N/A   Scattered Clouds
3:35 AM 46.4 °F 42.4 °F 44.6 °F 93% 30.42 in 10.0 mi WSW 8.1 mph - N/A   Clear
3:55 AM 46.4 °F 42.4 °F 42.8 °F 87% 30.41 in 10.0 mi West 8.1 mph - N/A   Clear
4:15 AM 44.6 °F 39.7 °F 42.8 °F 93% 30.41 in 10.0 mi SW 9.2 mph - N/A   Clear
4:35 AM 46.4 °F 41.1 °F 42.8 °F 87% 30.41 in 10.0 mi SW 11.5 mph 24.2 mph N/A   Clear
4:51 AM 46.4 °F 41.5 °F 42.8 °F 87% 30.42 in 10.0 mi WSW 10.4 mph 17.3 mph N/A   Clear
5:15 AM 44.6 °F 38.8 °F 42.8 °F 93% 30.41 in 10.0 mi SW 11.5 mph 19.6 mph N/A   Clear
5:35 AM 44.6 °F 40.2 °F 42.8 °F 93% 30.41 in 10.0 mi SW 8.1 mph 21.9 mph N/A   Clear
5:55 AM 44.6 °F 39.2 °F 42.8 °F 93% 30.42 in 10.0 mi SW 10.4 mph 21.9 mph N/A   Clear
6:15 AM 44.6 °F 37.8 °F 42.8 °F 93% 30.42 in 10.0 mi SW 15.0 mph 24.2 mph N/A   Clear
6:35 AM 44.6 °F 36.9 °F 42.8 °F 93% 30.41 in 10.0 mi SW 18.4 mph 24.2 mph N/A   Clear
6:54 AM 46.4 °F 39.8 °F 42.8 °F 87% 30.43 in 10.0 mi WSW 16.1 mph 23.0 mph N/A   Clear
7:15 AM 46.4 °F 40.1 °F 42.8 °F 87% 30.43 in 10.0 mi SW 15.0 mph 24.2 mph N/A   Clear
7:35 AM 46.4 °F 40.1 °F 42.8 °F 87% 30.43 in 10.0 mi SW 15.0 mph 25.3 mph N/A   Clear
7:55 AM 46.4 °F 40.4 °F 42.8 °F 87% 30.43 in 10.0 mi SW 13.8 mph 24.2 mph N/A   Clear
8:13 AM 48.2 °F - 42.8 °F 82% 30.44 in 10.0 mi SW 12.7 mph 25.3 mph N/A   Clear
8:35 AM 51.8 °F - 44.6 °F 76% 30.44 in 10.0 mi SW 13.8 mph 25.3 mph N/A   Clear
8:55 AM 53.6 °F - 44.6 °F 72% 30.45 in 10.0 mi SW 10.4 mph 21.9 mph N/A   Clear
9:14 AM 53.6 °F - 46.4 °F 77% 30.45 in 10.0 mi SW 10.4 mph 20.7 mph N/A   Scattered Clouds
9:35 AM 53.6 °F - 44.6 °F 72% 30.46 in 10.0 mi WSW 9.2 mph 17.3 mph N/A   Mostly Cloudy
9:54 AM 53.6 °F - 44.6 °F 72% 30.47 in 10.0 mi WSW 6.9 mph - N/A   Overcast
10:15 AM 53.6 °F - 46.4 °F 77% 30.47 in 10.0 mi West 6.9 mph - N/A   Overcast
10:35 AM 53.6 °F - 46.4 °F 77% 30.47 in 10.0 mi SW 5.8 mph - N/A   Overcast
10:55 AM 53.6 °F - 44.6 °F 72% 30.48 in 10.0 mi WSW 6.9 mph - N/A   Overcast
11:15 AM 53.6 °F - 46.4 °F 77% 30.48 in 10.0 mi SW 6.9 mph - N/A   Overcast
11:35 AM 51.8 °F - 46.4 °F 82% 30.49 in 10.0 mi WSW 4.6 mph - N/A   Overcast
11:55 AM 53.6 °F - 46.4 °F 77% 30.49 in 10.0 mi SW 5.8 mph - N/A   Overcast
12:15 PM 55.4 °F - 46.4 °F 72% 30.48 in 10.0 mi WSW 4.6 mph - N/A   Overcast
12:34 PM 59.0 °F - 46.4 °F 63% 30.48 in 10.0 mi WSW 4.6 mph - N/A Thunderstorm Scattered Clouds
12:54 PM 62.6 °F - 46.4 °F 55% 30.47 in 10.0 mi WSW 3.5 mph - N/A Thunderstorm Thunderstorm
1:15 PM 64.4 °F - 41.0 °F 42% 30.47 in 10.0 mi West 4.6 mph - N/A   Clear
1:34 PM 64.4 °F - 42.8 °F 45% 30.46 in 10.0 mi WSW 5.8 mph - N/A   Scattered Clouds
1:54 PM 64.4 °F - 42.8 °F 45% 30.47 in 10.0 mi SW 10.4 mph 16.1 mph N/A   Scattered Clouds
2:15 PM 62.6 °F - 42.8 °F 48% 30.47 in 10.0 mi SW 9.2 mph - N/A   Clear
2:35 PM 64.4 °F - 44.6 °F 49% 30.46 in 10.0 mi SSW 6.9 mph - N/A   Clear
2:55 PM 64.4 °F - 42.8 °F 45% 30.45 in 10.0 mi SW 6.9 mph 17.3 mph N/A Thunderstorm Thunderstorm
3:14 PM 66.2 °F - 42.8 °F 43% 30.45 in 10.0 mi SW 11.5 mph 17.3 mph N/A Thunderstorm Thunderstorm
3:35 PM 62.6 °F - 42.8 °F 48% 30.45 in 10.0 mi SW 9.2 mph 19.6 mph N/A Thunderstorm Clear
3:55 PM 59.0 °F - 42.8 °F 55% 30.45 in 10.0 mi SW 6.9 mph - N/A Thunderstorm Mostly Cloudy
4:14 PM 59.0 °F - 44.6 °F 59% 30.45 in 10.0 mi SW 9.2 mph - N/A   Overcast
4:35 PM 62.6 °F - 42.8 °F 48% 30.44 in 10.0 mi SW 5.8 mph - N/A   Scattered Clouds
4:55 PM 64.4 °F - 41.0 °F 42% 30.44 in 10.0 mi SW 10.4 mph 18.4 mph N/A Thunderstorm Thunderstorm
5:15 PM 62.6 °F - 41.0 °F 45% 30.44 in 10.0 mi SW 8.1 mph - N/A   Clear
5:35 PM 62.6 °F - 37.4 °F 39% 30.44 in 10.0 mi SW 8.1 mph - N/A   Clear
5:55 PM 62.6 °F - 39.2 °F 42% 30.44 in 10.0 mi SW 8.1 mph - N/A   Scattered Clouds
6:15 PM 60.8 °F - 41.0 °F 48% 30.44 in 10.0 mi West 4.6 mph - N/A   Mostly Cloudy
6:35 PM 59.0 °F - 42.8 °F 55% 30.45 in 10.0 mi WNW 5.8 mph - N/A   Scattered Clouds
6:52 PM 57.2 °F - 42.8 °F 59% 30.45 in 10.0 mi WNW 5.8 mph - N/A   Mostly Cloudy
7:15 PM 53.6 °F - 42.8 °F 67% 30.45 in 10.0 mi WNW 5.8 mph - N/A   Overcast
7:35 PM 51.8 °F - 42.8 °F 71% 30.45 in 10.0 mi WNW 8.1 mph - N/A   Overcast
7:55 PM 51.8 °F - 42.8 °F 71% 30.45 in 10.0 mi West 3.5 mph - N/A   Overcast
8:15 PM 50.0 °F - 41.0 °F 71% 30.46 in 10.0 mi WNW 4.6 mph - N/A   Overcast
8:35 PM 50.0 °F - 41.0 °F 71% 30.46 in 10.0 mi WNW 4.6 mph - N/A   Overcast
8:55 PM 50.0 °F - 41.0 °F 71% 30.46 in 10.0 mi Calm Calm - N/A   Mostly Cloudy
9:15 PM 51.8 °F - 42.8 °F 71% 30.47 in 10.0 mi Calm Calm - N/A   Mostly Cloudy
9:35 PM 51.8 °F - 42.8 °F 71% 30.47 in 10.0 mi SW 4.6 mph - N/A   Overcast
9:54 PM 51.8 °F - 42.8 °F 71% 30.48 in 10.0 mi SW 4.6 mph - N/A Rain Light Rain
10:15 PM 48.2 °F - 41.0 °F 76% 30.47 in 10.0 mi WSW 4.6 mph - N/A   Light Drizzle
10:35 PM 46.4 °F 42.4 °F 41.0 °F 81% 30.47 in 10.0 mi WSW 8.1 mph - N/A   Overcast
10:54 PM 46.4 °F 41.5 °F 41.0 °F 81% 30.47 in 10.0 mi SW 10.4 mph 17.3 mph N/A Rain Light Rain
11:15 PM 46.4 °F 41.1 °F 44.6 °F 93% 30.47 in 10.0 mi SW 11.5 mph 21.9 mph N/A Rain Light Rain
11:35 PM 46.4 °F 41.9 °F 44.6 °F 93% 30.47 in 3.0 mi SW 9.2 mph 18.4 mph N/A Rain Rain
11:55 PM 46.4 °F 43.5 °F 44.6 °F 93% 30.47 in 1.8 mi WSW 5.8 mph - N/A Rain Rain